SHIJIAN-20 (SJ-20)

Last updated on Tue Dec 16 2025 00:02:52 GMT+0000 (Coordinated Universal Time)

1 44910U 19097A 25349.78732625 -.00000097 00000+0 00000+0 0 9992 2 44910 4.4491 77.3391 0007240 230.4078 138.3175 1.00269876 21863
UTC large
Height (km)
Speed (km/s)
/
Latitude / Longitude
Inclination (degrees)
Orbital Period (minutes)
Azimuth
Elevation
Range (km)
Doppler Factor

Next 0 passes for location: London (51.5072 / 0.1276)

Sorry there are no passes over London.